Wind_Speed
38 36 35 30 28 21 26 25 20 13 13 12 10 10 17 18 14 9 10 7 12 14 10 8 9 9 10 9 6 4 4 5 5 6 7 7 11 13 13 14 14 12 13 13
38 38 35 34 30 30 28 25 26 19 16 14 11 9 14 21 20 17 14 10 8 15 15 14 13 12 7 3 5 8 9 11 12 14 16 16 12 15 17 14 14 15 15 16
38 41 36 34 32 31 30 24 23 20 23 17 11 8 26 22 24 21 19 12 10 9 11 15 17 17 11 7 6 5 5 10 15 19 20 21 20 17 18 16 17 17 19 21
40 40 38 36 34 33 32 26 23 24 27 18 15 7 16 20 27 24 23 19 14 13 14 11 11 13 15 13 10 8 11 8 4 4 10 13 20 20 21 21 15 21 24 23
44 46 40 40 38 35 34 28 24 28 28 18 18 12 11 17 23 27 26 27 21 16 16 14 14 20 20 11 7 6 5 2 7 11 10 4 6 9 18 21 20 24 27 28
53 46 45 49 44 39 38 33 28 25 27 20 22 16 13 15 25 37 30 29 28 25 17 14 18 20 19 13 9 8 10 6 7 8 7 9 8 3 2 8 16 23 26 23
53 47 51 50 48 46 42 40 32 28 27 25 26 20 21 17 23 28 30 34 31 29 25 21 20 21 19 18 16 10 12 12 8 8 4 6 4 6 4 5 11 15 15 11
57 53 51 52 47 48 45 42 37 34 33 31 31 23 28 24 23 24 28 30 33 31 34 29 24 23 24 21 20 17 17 20 17 12 10 6 9 3 2 2 3 4 2 7
65 59 59 52 52 49 44 40 40 37 34 33 32 29 33 35 28 25 29 31 32 31 35 36 30 31 30 27 24 24 23 23 25 22 18 13 13 14 9 10 3 2 6 8
64 65 66 61 56 53 51 47 43 39 36 35 35 36 37 42 35 31 28 28 30 32 34 36 36 33 29 28 29 30 29 29 27 24 20 18 14 14 15 15 8 6 10 13
54 63 67 65 64 64 59 54 48 47 41 38 35 36 42 43 43 39 33 30 30 30 33 39 38 39 38 35 30 28 29 29 28 26 22 18 15 13 16 16 16 16 11 17
39 45 58 65 68 67 67 64 59 55 49 46 43 39 45 41 42 49 39 34 33 32 32 35 37 40 41 38 31 33 33 32 31 27 26 23 21 19 19 25 22 24 23 28
33 40 43 45 60 68 71 71 70 66 62 56 52 47 52 46 45 50 47 39 37 35 34 34 34 33 32 40 34 34 33 36 36 31 30 26 24 23 23 24 20 17 24 34
26 33 35 40 47 51 58 67 67 69 70 66 62 60 57 52 52 50 52 41 44 41 37 37 35 35 33 35 42 41 42 41 38 36 31 29 25 24 21 19 12 20 32 33
18 24 29 34 39 46 51 49 65 69 68 69 71 72 65 63 60 51 50 54 47 45 42 41 41 39 37 36 37 41 40 36 35 32 29 31 29 30 22 21 22 25 28 34
22 21 18 26 33 39 42 46 55 62 68 70 71 71 75 75 68 59 60 59 55 49 48 47 45 43 41 41 39 39 38 36 33 29 30 30 29 27 24 21 21 27 29 36
26 25 23 19 23 30 37 43 46 53 61 67 69 71 78 72 70 71 70 65 64 56 53 50 50 48 47 43 42 41 39 35 36 34 29 28 26 22 23 19 16 23 28 31
25 28 28 27 23 20 29 35 41 44 51 57 64 70 73 67 72 76 76 71 70 64 58 55 53 53 50 49 44 41 39 39 38 36 30 29 25 26 23 17 18 28 32 32
27 28 28 27 28 27 26 24 32 40 43 50 57 62 66 70 71 81 77 76 74 72 65 61 58 54 54 51 48 46 42 41 41 40 36 30 31 29 26 22 26 23 28 35
32 31 32 31 30 31 31 30 24 30 39 46 44 51 57 65 76 84 71 74 77 76 73 68 63 60 56 54 50 49 46 45 44 45 40 34 34 29 29 34 38 33 35 44
38 38 36 36 34 38 37 35 28 30 27 34 43 45 50 62 70 78 75 76 78 79 77 74 69 66 61 58 53 50 48 48 48 47 42 37 36 27 34 30 37 41 39 45
42 40 42 43 42 42 43 43 35 32 27 27 28 39 45 53 63 68 77 77 77 80 80 78 76 71 67 64 58 54 50 48 48 46 44 41 38 34 35 33 35 38 40 46
43 46 45 47 49 46 45 47 42 42 35 27 31 31 38 45 54 62 71 79 78 80 81 82 80 77 73 69 65 59 55 53 48 44 43 40 41 40 37 38 39 39 41 38
51 54 52 53 55 54 51 46 47 46 43 38 36 29 33 40 44 57 64 75 81 80 80 82 84 82 77 75 71 66 62 57 51 47 39 38 47 43 44 44 44 44 44 46
59 61 61 61 61 59 54 51 48 48 45 49 42 40 31 34 45 52 58 67 78 79 79 80 81 83 81 76 74 72 68 63 57 50 40 45 50 51 51 49 49 50 45 48
67 69 67 63 66 67 62 64 56 53 49 49 48 46 39 31 40 47 50 56 68 74 80 79 80 81 82 78 74 72 70 66 58 47 47 51 54 57 56 54 55 55 57 53
Wind_Direction
269 273 277 279 281 273 247 279 297 299 293 262 244 241 235 232 244 234 240 259 198 197 196 183 160 141 126 128 143 190 219 242 251 251 275 237 242 229 246 254 255 257 274 284
264 265 267 267 271 276 280 280 288 298 297 289 250 239 240 228 235 248 226 253 214 208 210 206 191 183 215 238 246 225 230 243 251 257 271 270 269 255 255 258 254 277 282 283
256 260 262 263 265 268 273 276 284 294 296 295 297 69 291 230 229 235 229 219 239 241 222 221 221 223 228 231 219 216 242 248 252 256 258 260 265 263 253 247 255 274 271 278
254 255 259 258 260 262 266 267 271 283 281 284 294 246 220 227 225 227 227 219 220 238 241 225 213 201 210 219 183 146 79 96 90 306 275 259 251 251 252 249 262 276 276 277
250 251 256 259 256 255 261 259 254 258 265 274 283 280 232 227 229 232 228 225 220 220 246 217 194 190 201 193 175 162 168 115 68 34 1 259 249 256 249 258 259 258 279 287
248 251 252 251 256 256 254 257 250 248 254 263 268 274 259 197 177 236 230 234 223 226 233 227 205 202 209 191 201 222 235 239 278 9 52 74 39 58 299 274 270 268 273 277
248 247 250 253 255 255 255 255 254 249 251 252 262 264 263 242 227 227 228 228 226 226 234 235 218 218 214 210 218 257 254 226 261 326 327 262 302 312 299 294 265 271 289 300
249 249 245 250 255 256 256 257 258 253 249 247 255 257 263 252 240 226 225 222 227 229 229 231 224 227 219 221 229 252 251 263 266 288 296 272 248 269 254 169 274 321 155 97
249 249 250 248 249 252 254 254 252 252 249 249 250 243 252 255 245 232 216 223 225 230 227 231 232 230 227 237 244 262 263 264 266 275 281 267 248 242 201 209 195 199 207 251
247 246 247 247 248 251 250 248 248 248 245 242 242 240 241 255 251 242 227 219 222 224 225 228 232 228 233 242 252 260 265 261 259 264 277 271 270 271 228 246 229 205 249 267
247 243 244 243 242 244 246 247 246 247 245 241 240 240 244 246 259 256 246 229 225 226 225 226 231 238 239 244 252 256 257 262 258 265 272 271 280 264 235 235 254 273 284 289
255 252 246 242 241 241 241 241 244 244 244 241 234 236 247 251 251 259 252 249 240 232 230 228 229 235 244 243 244 253 256 262 262 263 271 269 272 272 261 286 291 255 305 308
261 253 250 250 249 243 240 240 239 239 238 240 236 234 241 243 248 255 257 250 251 245 241 237 235 233 236 241 234 247 251 253 259 267 265 268 271 280 282 298 286 259 309 306
276 264 256 249 247 250 245 245 242 240 239 236 238 235 237 241 241 247 251 255 251 250 248 249 246 245 238 241 244 242 245 252 256 258 261 272 280 283 282 290 277 272 289 302
313 289 276 259 251 250 249 239 243 242 240 238 235 236 235 237 239 243 251 251 249 250 249 250 252 250 249 241 244 252 255 255 257 256 263 272 276 282 275 287 280 288 286 287
358 356 296 277 264 254 251 247 243 240 238 239 237 236 237 235 236 239 241 246 249 248 249 250 250 253 250 251 248 246 252 257 264 266 266 269 272 272 280 286 290 296 292 301
344 347 351 331 288 273 262 251 245 242 242 237 236 237 236 235 236 235 239 240 244 243 246 247 250 249 253 251 252 252 254 256 261 261 264 272 276 275 270 275 287 304 306 309
328 331 334 338 338 305 279 270 260 254 246 242 239 236 237 234 235 235 236 237 242 243 243 246 247 250 249 253 254 256 259 259 259 263 266 266 269 270 265 269 275 306 307 305
319 322 322 325 325 326 320 297 273 260 256 247 242 239 237 232 231 234 233 236 238 242 242 243 246 248 251 252 254 257 258 260 263 265 268 272 267 270 268 271 282 288 296 300
310 311 311 314 315 313 314 316 306 278 263 260 254 245 236 233 231 233 230 233 236 239 240 242 244 247 248 251 252 255 257 259 260 263 266 270 272 275 270 279 279 277 285 287
304 305 304 305 308 305 306 302 305 308 296 272 262 254 241 234 233 231 226 230 231 235 238 240 241 244 247 249 251 252 255 258 260 263 268 269 268 272 264 278 282 279 289 283
298 298 300 301 300 300 301 296 296 296 298 296 284 260 250 242 237 235 226 227 232 232 234 237 239 241 243 247 249 251 254 256 258 261 264 265 263 259 259 272 276 287 288 288
298 298 297 298 296 293 294 293 292 287 285 281 285 285 261 251 243 238 230 225 228 232 232 234 237 238 241 244 246 249 251 254 256 259 261 262 264 261 260 264 272 281 283 290
292 293 299 294 295 292 285 283 284 283 283 281 278 286 278 260 247 241 235 229 227 229 232 233 236 238 239 242 244 247 250 252 255 258 260 263 263 262 261 263 267 275 279 285
291 294 292 295 297 298 292 282 278 280 278 277 275 273 270 269 262 248 241 234 229 228 231 233 234 238 241 241 244 246 249 251 254 256 256 253 259 257 259 259 264 271 277 280
294 293 297 298 294 294 292 286 278 272 269 270 271 270 271 258 272 252 241 237 232 229 229 231 234 235 238 242 244 247 249 252 257 262 255 258 259 260 260 261 264 270 273 275
Height
10954 10957 10959 10963 10966 10974 10977 10971 10966 10964 10962 10962 10963 10962 10963 10963 10962 10964 10965 10967 10967 10968 10968 10968 10968 10970 10971 10971 10973 10973 10974 10974 10974 10975 10975 10975 10975 10974 10975 10975 10976 10977 10977 10976
10946 10949 10953 10955 10959 10960 10961 10961 10960 10960 10958 10958 10960 10961 10960 10961 10961 10961 10963 10965 10965 10965 10966 10967 10968 10969 10970 10971 10972 10972 10973 10973 10973 10973 10973 10972 10972 10973 10973 10973 10974 10975 10974 10973
10938 10938 10944 10948 10951 10953 10954 10955 10955 10955 10955 10955 10957 10963 10964 10959 10959 10960 10961 10962 10964 10963 10963 10964 10965 10967 10969 10970 10970 10971 10971 10970 10970 10969 10968 10968 10969 10970 10970 10970 10971 10970 10970 10969
10929 10930 10935 10939 10942 10945 10947 10949 10950 10951 10950 10952 10952 10957 10956 10959 10955 10957 10959 10960 10961 10961 10961 10961 10963 10965 10967 10968 10968 10969 10969 10968 10967 10966 10965 10963 10964 10966 10966 10967 10967 10966 10964 10964
10919 10920 10926 10928 10933 10936 10939 10942 10945 10945 10943 10947 10948 10950 10954 10955 10958 10958 10955 10957 10958 10960 10959 10960 10960 10962 10964 10965 10966 10967 10967 10968 10966 10965 10963 10961 10961 10962 10964 10964 10965 10964 10962 10959
10905 10915 10918 10916 10922 10929 10930 10934 10938 10939 10940 10941 10942 10945 10948 10953 10948 10947 10951 10952 10955 10955 10957 10958 10958 10960 10961 10961 10963 10965 10966 10967 10966 10965 10963 10962 10961 10960 10960 10960 10960 10959 10958 10956
10895 10905 10905 10909 10913 10917 10923 10926 10933 10936 10936 10937 10935 10939 10941 10944 10944 10944 10945 10946 10948 10951 10953 10955 10956 10957 10959 10960 10961 10962 10964 10964 10964 10963 10962 10960 10959 10957 10957 10955 10955 10955 10952 10950
10884 10891 10895 10897 10906 10908 10914 10919 10925 10928 10930 10930 10930 10935 10936 10936 10937 10938 10938 10940 10942 10945 10947 10949 10951 10953 10956 10956 10957 10959 10960 10961 10961 10959 10958 10957 10956 10954 10953 10951 10950 10949 10947 10946
10869 10878 10880 10891 10892 10898 10906 10911 10914 10917 10922 10924 10925 10927 10927 10925 10928 10930 10932 10933 10937 10939 10941 10944 10946 10948 10950 10952 10954 10955 10956 10956 10954 10952 10951 10951 10950 10950 10949 10948 10946 10945 10945 10944
10852 10861 10866 10874 10883 10888 10892 10897 10903 10907 10912 10915 10916 10918 10918 10914 10919 10921 10924 10926 10929 10931 10934 10938 10940 10941 10943 10945 10946 10948 10949 10949 10947 10947 10947 10947 10947 10947 10947 10945 10943 10942 10941 10940
10835 10842 10845 10858 10865 10869 10877 10885 10892 10894 10901 10905 10909 10910 10907 10907 10907 10912 10916 10920 10922 10924 10927 10930 10933 10935 10937 10938 10940 10941 10941 10940 10940 10941 10943 10943 10943 10942 10942 10942 10940 10938 10935 10935
10823 10826 10830 10836 10841 10853 10861 10867 10876 10882 10889 10893 10896 10901 10897 10901 10902 10898 10907 10911 10915 10917 10920 10922 10924 10927 10931 10932 10933 10934 10934 10933 10933 10936 10937 10937 10937 10937 10937 10934 10933 10931 10931 10928
10811 10812 10817 10824 10827 10830 10837 10845 10855 10862 10871 10878 10884 10890 10883 10890 10892 10889 10894 10902 10905 10909 10911 10914 10917 10918 10920 10924 10924 10925 10925 10925 10927 10930 10930 10931 10930 10930 10929 10928 10926 10925 10923 10921
10801 10801 10805 10810 10811 10815 10823 10831 10839 10844 10853 10862 10869 10870 10873 10878 10879 10881 10881 10894 10893 10897 10901 10903 10907 10910 10912 10914 10917 10917 10917 10918 10921 10922 10923 10923 10924 10923 10923 10922 10922 10921 10919 10916
10797 10795 10795 10797 10800 10801 10804 10815 10818 10826 10835 10842 10848 10850 10859 10859 10862 10873 10878 10874 10883 10886 10890 10893 10896 10900 10903 10904 10907 10909 10909 10911 10913 10914 10916 10916 10917 10916 10917 10916 10916 10915 10911 10909
10795 10792 10789 10788 10789 10790 10792 10796 10800 10805 10813 10821 10826 10837 10839 10840 10848 10860 10859 10864 10869 10875 10878 10882 10885 10888 10892 10895 10898 10900 10902 10904 10906 10908 10908 10908 10908 10909 10908 10909 10909 10909 10907 10904
10791 10789 10787 10784 10782 10781 10782 10780 10785 10791 10795 10800 10809 10816 10809 10829 10839 10842 10842 10848 10851 10861 10864 10868 10872 10877 10879 10883 10888 10891 10893 10895 10896 10897 10900 10900 10900 10900 10899 10898 10900 10899 10897 10894
10789 10785 10782 10779 10777 10774 10772 10773 10773 10776 10781 10785 10789 10793 10799 10816 10818 10821 10826 10834 10837 10845 10851 10855 10859 10864 10869 10873 10876 10880 10885 10886 10886 10887 10890 10889 10889 10888 10888 10888 10888 10890 10886 10884
10784 10781 10778 10776 10771 10769 10767 10766 10765 10763 10765 10766 10772 10777 10785 10794 10799 10788 10808 10819 10825 10830 10838 10843 10846 10852 10856 10862 10866 10869 10873 10875 10877 10876 10877 10880 10879 10879 10880 10879 10879 10878 10876 10874
10777 10774 10772 10769 10766 10763 10760 10758 10757 10756 10753 10753 10761 10764 10771 10772 10772 10767 10799 10804 10810 10814 10821 10828 10834 10837 10844 10848 10854 10858 10861 10863 10865 10865 10867 10871 10871 10872 10872 10870 10869 10868 10865 10862
10766 10763 10762 10760 10760 10754 10753 10750 10750 10747 10745 10744 10744 10747 10753 10752 10753 10759 10779 10782 10789 10796 10805 10812 10818 10823 10829 10833 10840 10845 10849 10851 10853 10855 10858 10861 10860 10864 10861 10861 10858 10857 10855 10849
10757 10755 10751 10749 10747 10747 10742 10739 10741 10739 10737 10734 10734 10733 10735 10739 10740 10748 10761 10766 10772 10779 10786 10793 10800 10808 10814 10819 10826 10830 10836 10839 10840 10844 10846 10849 10852 10852 10852 10849 10847 10845 10844 10840
10744 10740 10741 10737 10733 10735 10731 10727 10727 10726 10728 10727 10723 10722 10723 10725 10728 10732 10740 10748 10755 10759 10769 10776 10783 10792 10799 10805 10812 10817 10821 10824 10828 10833 10836 10841 10840 10840 10839 10838 10837 10834 10832 10829
10728 10724 10725 10721 10716 10714 10716 10715 10711 10711 10712 10713 10712 10712 10710 10710 10714 10715 10722 10729 10735 10743 10751 10760 10766 10774 10784 10790 10798 10804 10808 10812 10818 10823 10830 10833 10831 10829 10828 10827 10826 10824 10822 10819
10710 10707 10705 10704 10698 10695 10694 10694 10696 10695 10696 10693 10695 10696 10698 10698 10696 10699 10705 10711 10719 10728 10736 10744 10753 10760 10768 10778 10784 10791 10796 10801 10806 10811 10817 10815 10817 10816 10814 10813 10812 10812 10810 10808
10691 10687 10685 10683 10674 10672 10672 10666 10670 10673 10675 10675 10676 10676 10680 10682 10680 10683 10688 10695 10704 10713 10718 10727 10735 10743 10751 10763 10772 10778 10784 10790 10798 10803 10807 10803 10801 10800 10801 10802 10800 10800 10798 10795